Weather in Palermo

Italy     38˚07′59″N   13˚20′50″E
temp.,
°C
wind,
m/s
gust,
m/s
humid.,
%
clouds,
%
prec.,
mm/h
press.,
hPa
HPBL,
m
28 november, sat
sat2801:00+16˚sse4465100 0.0 1016338
04:00+16˚se6768100 0.0 1015385
07:00+16˚se8107197 0.0 1014532
10:00+18˚se71270100 0.0 10131206
13:00+19˚se81069100 0.3 10101003
16:00+18˚se7976100 1.7 1008863
19:00+18˚sse51171100 3.6 10071139
22:00+17˚s3668100 0.1 1007614
29 november, sun
sun2901:00+17˚s4762100 0.1 1006779
04:00+16˚s456452 0.0 1006739
07:00+15˚se556826 0.0 1005260
10:00+16˚se696694 0.2 1007876
13:00+17˚e796797 1.6 10061130
16:00+15˚ene5775100 2.4 1007486
19:00+16˚n2572100 3.0 1008458
22:00+17˚n677567 0.5 1011828
30 november, mon
mon3001:00+16˚nnw567433 0.9 1013856
04:00+17˚nnw8107645 2.1 10141050
07:00+17˚n787534 3.8 1015924
10:00+17˚nnw557230 0.1 10181055
13:00+17˚nnw336947 0.2 1018921
16:00+17˚nnw337095 0.0 1019840
19:00+17˚nnw227093 0.0 1019782
22:00+16˚wnw116893 0.0 1020795
1 december, tue
tue101:00+16˚w236989 0.0 1020785
04:00+16˚w447594 0.1 1019596
07:00+16˚wsw667564 0.3 1019796
10:00+16˚sw557137 0.0 1018906
13:00+17˚wsw676419 0.0 10171059
16:00+16˚w78730 0.0 10161007
19:00+16˚wsw687512 0.3 1016921
22:00+16˚wsw787657 0.3 10151035
2 december, wed
wed201:00+16˚sw687162 0.3 1014957
04:00+15˚sw7875100 0.1 1013848
07:00+15˚ssw6774100 0.3 1012729
10:00+16˚ssw4569100 0.0 1012740
13:00+17˚ssw3457100 0.0 1009925
16:00+18˚sse3463100 0.1 1007539
19:00+17˚s61064100 0.3 1006986
22:00+13˚w91091100 5.5 1007672